Tracking 30310 objects as of 25-Apr-2025
HD Live streaming from Space Station
objects crossing your sky now

METEOR 2-17 DEB

Track METEOR 2-17 DEB now!
10-day predictions


NORAD ID: 35371
Int'l Code: 1988-005AF
Perigee: 879.6 km
Apogee: 897.4 km
Inclination: 82.5 °
Period: 102.6 minutes
Semi major axis: 7259 km
RCS: 0.0006 m2 (small)
Launch date: January 30, 1988
Source: Commonwealth of Independent States (former USSR) (CIS)
Launch site: PLESETSK MISSILE AND SPACE COMPLEX (PKMTR)

Note: This is SATELLITE DEBRIS
Your satellite tracking list
Your tracking list is empty




NASA's NSSDC Master Catalog

Two Line Element Set (TLE):
1 35371U 88005AF  25106.04544187  .00004689  00000-0  29772-2 0  9993
2 35371  82.5119 222.8058 0012288   3.1234 357.0012 14.03599362600554
Source of the keplerian elements: AFSPC